EW8081 Weather Reports


Display with metric or nautical units.
time (UTC)temp
F
wind
direction
speed
MPH
gust
MPH
rain 1hr
in
rain 24hr
in
rain mn
in
humidity
%
barometer
mb
20260904211501 63 337 6.0 13.0 0.00 0.00 0.00 58 1014.2
20260904204557 62 339 4.0 11.0 0.00 0.00 0.00 58 1014.5
20260904203056 62 326 5.0 14.0 0.00 0.00 0.00 58 1014.4
20260904201556 62 327 4.0 10.0 0.00 0.00 0.00 58 1014.5
20260904200121 62 337 6.0 11.0 0.00 0.00 0.00 59 1014.4
20260904194632 62 299 3.0 9.0 0.00 0.00 0.00 59 1014.5
20260904193054 62 307 4.0 11.0 0.00 0.00 0.00 59 1014.2
20260904191603 62 320 4.0 9.0 0.00 0.00 0.00 59 1014.1
20260904190053 62 328 6.0 12.0 0.00 0.00 0.00 60 1014.2
20260904184553 62 307 4.0 12.0 0.00 0.00 0.00 61 1014.4
20260904183043 61 307 5.0 15.0 0.00 0.00 0.00 64 1014.3
20260904181547 60 336 4.0 14.0 0.00 0.00 0.00 68 1014.4
20260904180039 59 319 4.0 9.0 0.00 0.00 0.00 70 1014.4
20260904174533 59 347 4.0 9.0 0.00 0.00 0.00 71 1014.3
20260904173040 59 332 3.0 8.0 0.00 0.00 0.00 71 1014.3
20260904171539 58 332 3.0 8.0 0.00 0.00 0.00 73 1014.5
20260904170030 57 316 1.0 3.0 0.00 0.00 0.00 76 1014.6
20260904164528 57 308 1.0 5.0 0.00 0.00 0.00 77 1014.9
20260904163024 57 305 0.0 1.0 0.00 0.00 0.00 76 1015.2
20260904161526 58 305 0.0 1.0 0.00 0.00 0.00 75 1015.6
20260904160020 59 304 0.0 3.0 0.00 0.00 0.00 75 1015.8
20260904154517 58 304 0.0 2.0 0.00 0.00 0.00 79 1016.0
20260904153022 57 304 0.0 3.0 0.00 0.00 0.00 78 1016.3
20260904151518 57 304 1.0 3.0 0.00 0.00 0.00 78 1016.3
20260904150010 57 304 1.0 4.0 0.00 0.00 0.00 81 1016.7
20260904144508 56 303 1.0 3.0 0.00 0.00 0.00 82 1016.5
20260904143007 56 303 2.0 3.0 0.00 0.00 0.00 83 1016.7
20260904141504 56 303 0.0 3.0 0.00 0.00 0.00 84 1016.8
20260904140002 56 303 1.0 2.0 0.00 0.00 0.00 83 1016.8
20260904134502 57 303 1.0 3.0 0.00 0.00 0.00 83 1016.9
20260904133114 58 300 2.0 5.0 0.00 0.00 0.00 83 1017.0
20260904131614 58 283 2.0 3.0 0.00 0.00 0.00 82 1017.1
20260904130059 59 283 0.0 4.0 0.00 0.00 0.00 82 1017.3
20260904124600 59 290 1.0 4.0 0.00 0.00 0.00 82 1017.4
20260904123109 59 292 2.0 5.0 0.00 0.00 0.00 83 1017.7
20260904121558 59 288 1.0 4.0 0.00 0.00 0.00 82 1017.9
20260904120057 60 305 0.0 3.0 0.00 0.00 0.00 81 1017.7
20260904114556 60 316 1.0 3.0 0.00 0.00 0.00 79 1017.9
20260904113059 61 327 0.0 3.0 0.00 0.00 0.00 78 1017.8
20260904111553 62 338 1.0 3.0 0.00 0.00 0.00 78 1017.9
20260904110053 62 10 2.0 5.0 0.00 0.00 0.00 77 1017.6
20260904104553 62 28 3.0 6.0 0.00 0.00 0.00 77 1017.7
20260904103053 62 35 3.0 8.0 0.00 0.00 0.00 75 1017.5
20260904101553 62 33 2.0 5.0 0.00 0.00 0.00 74 1017.5
20260904100101 62 41 2.0 8.0 0.00 0.00 0.00 75 1017.4
20260904094550 62 33 3.0 8.0 0.00 0.00 0.00 75 1017.2
20260904093055 62 64 3.0 8.0 0.00 0.00 0.00 74 1017.0
20260904091549 62 48 3.0 8.0 0.00 0.00 0.00 75 1016.9
20260904090052 62 350 3.0 9.0 0.00 0.00 0.00 76 1016.8
20260904084549 62 50 1.0 5.0 0.00 0.00 0.00 78 1016.6
20260904083048 62 345 2.0 6.0 0.00 0.00 0.00 76 1016.6
20260904081548 63 50 1.0 6.0 0.00 0.00 0.00 75 1016.4
20260904080051 63 29 3.0 9.0 0.00 0.00 0.00 74 1016.4
20260904074544 63 28 2.0 6.0 0.00 0.00 0.00 75 1016.2
20260904073050 64 53 3.0 8.0 0.00 0.00 0.00 74 1015.9
20260904071544 64 37 3.0 9.0 0.00 0.00 0.00 73 1015.8
20260904070043 65 348 5.0 11.0 0.00 0.00 0.00 69 1015.7
20260904064541 67 88 5.0 10.0 0.00 0.00 0.00 65 1015.7
20260904063040 70 51 3.0 9.0 0.00 0.00 0.00 60 1015.6
20260904061547 70 360 4.0 11.0 0.00 0.00 0.00 60 1015.6
20260904060037 71 36 3.0 10.0 0.00 0.00 0.00 53 1015.6
20260904054538 72 360 5.0 12.0 0.00 0.00 0.00 57 1015.7
20260904053036 73 91 6.0 12.0 0.00 0.00 0.00 56 1015.7
20260904051535 74 27 6.0 12.0 0.00 0.00 0.00 52 1015.8
20260904050032 75 5 3.0 9.0 0.00 0.00 0.00 53 1016.1
20260904044541 77 279 1.0 5.0 0.00 0.00 0.00 51 1016.2
20260904043030 77 197 1.0 6.0 0.00 0.00 0.00 50 1016.4
20260904041535 77 174 2.0 4.0 0.00 0.00 0.00 50 1016.6
20260904040026 77 22 1.0 3.0 0.00 0.00 0.00 52 1016.7
20260904034525 74 178 3.0 7.0 0.00 0.00 0.00 52 1016.9
20260904033022 76 172 2.0 6.0 0.00 0.00 0.00 47 1017.2
20260904031520 75 160 1.0 6.0 0.00 0.00 0.00 50 1017.3
20260904030019 75 65 1.0 6.0 0.00 0.00 0.00 48 1017.5
20260904024519 75 182 3.0 9.0 0.00 0.00 0.00 48 1017.6
20260904023018 78 185 0.0 5.0 0.00 0.00 0.00 44 1017.8
20260904021516 77 193 1.0 5.0 0.00 0.00 0.00 44 1018.2
20260904020014 75 93 1.0 6.0 0.00 0.00 0.00 37 1018.5
20260904014512 75 16 2.0 9.0 0.00 0.00 0.00 37 1018.6
20260904013009 76 305 0.0 8.0 0.00 0.00 0.00 38 1019.1
20260904011508 74 343 1.0 9.0 0.00 0.00 0.00 38 1019.3
20260904010007 75 316 4.0 8.0 0.00 0.00 0.00 40 1019.5
20260904004506 74 301 2.0 9.0 0.00 0.00 0.00 40 1019.5
20260904003103 72 291 3.0 12.0 0.00 0.00 0.00 43 1019.5
20260904001559 72 264 5.0 11.0 0.00 0.00 0.00 43 1019.6
20260904000100 71 307 2.0 12.0 0.00 0.00 0.00 45 1019.7
20260903234554 70 283 7.0 13.0 0.00 0.00 0.00 45 1019.8
20260903233052 69 347 5.0 13.0 0.00 0.00 0.00 46 1020.0
20260903231601 68 299 6.0 16.0 0.00 0.00 0.00 47 1020.3
20260903230046 67 295 9.0 16.0 0.00 0.00 0.00 48 1020.4
20260903224543 66 307 7.0 15.0 0.00 0.00 0.00 51 1020.4
20260903223044 63 304 9.0 16.0 0.00 0.00 0.00 55 1020.4
20260903221539 62 298 9.0 18.0 0.00 0.00 0.00 57 1020.5
20260903220055 60 302 7.0 14.0 0.00 0.00 0.00 59 1020.5
20260903214530 60 274 7.0 12.0 0.00 0.00 0.00 60 1020.4
20260903213030 59 309 4.0 10.0 0.00 0.00 0.00 63 1020.3